Showing default

TYVAK-0173, 48892

Orbit data source: Space-Track

TYVAK-0173, 48892 is a payload satellite owned by Echostar AU (AU) in SSO that was launched on Wed, 30 Jun 2021 UTC via an FALCON 9 launch vehicle from the Air Force Eastern Test Range (AFETR). Payload-class satellites include a variety of spacecraft equipped with specific instruments for various scientific and technological missions. These include communications satellites like Starlink; space stations such as the ISS; scientific satellites like the Hubble; Earth observation satellites from companies like Planet Labs, Umbra, and HawkEye 360; GPS; miniature CubeSats for education and research; and military/defense satellites.

Loading next visibility...
Identifier
48892, 2021-059P
Orbit
SSO
Country
Flag of AUAU / AUS
Related business
Manufacturer
Tyvak NSS
Mission
Operational Commercial Technology
Bus & Motor
CUBESAT 12U, Unknown motor
Mass
11 kg wet, 11 kg dry
Launch date (UTC)
2021-06-30 (5 years ago)
Launch vehicle
FALCON 9
Launch site
Air Force Eastern Test Range (AFETR)
Object type
Payload
Rocket body
Debris
Shape & HBR
Box + 2 Pan, 0.8 m
Radar Cross Section
0.155 m², Medium (>0.1 m² and < 1m²)

Expand to show TLE details & history
Last TLE update: 22 hours ago

TLE from 22 hours ago
0 TYVAK-0173
1 48892U 21059P   26013.80441121  .00001776  00000-0  23248-3 0  9994
2 48892  96.0093 128.5891 0009115 183.2599 176.8561 14.81148485245387
Epoch: 2026-01-13T19:18Z
TLE epoch observation values (Epoch: 2026-01-13T19:18:21.128Z)
Latitude
0.00001°
Longitude
85.71957°
Altitude
635.15 km
Speed
7.537 km/s
True Right ascension
08h 34m 21s
True Declination
0° 00' 00"
Sunlit
Object was in full shadow at epoch
Visualization orbit readout
Latitude
Unknown
Longitude
Unknown
Altitude
Unknown
Speed
Unknown
Apparent Right ascension
Unknown
Apparent Declination
Unknown
Sunlit
N/A
Visualization observer readout
Local Sidereal Time
17:26:03
Azimuth
Unknown
Elevation
Unknown
Doppler factor
Unknown
Orbital elements
Apogee altitude
629.047 km
Perigee altitude
616.285 km
Semi-major axis
7,000.803 km
Eccentricity
0.00091
Inclination
96.0093°
RAAN
128.5891°
Arg. of periapsis
183.2599°
True anomaly
176.86182°
Mean anomaly
176.8561°
Eccentric anomaly
176.85896°
Mean motion
3.70528 °/min
Orbital period
97.16 mins
BSTAR
0.00023248
Loading maneuver chart data...
Computing Atmospheric mass density...

Documentation

Showing up to 5 results
|